Location: Althorst
(53.6379°N, 10.7715°E)
Time: 06:01:12
(UTC+00:00)

Cosmos 1340 - Pass Details

Date: 10 December 2019
Orbit: 502 x 506 km, 81.2° (Epoch: 22 January)

Event Time Altitude Azimuth Distance (km) Brightness Sun altitude
Rises 16:06:10 0° 341° (NNW) 2,623 6.2 -9.5°
Reaches altitude 10° 16:08:23 10° 333° (NNW) 1,733 5.4 -9.8°
Maximum altitude 16:11:56 39° 264° (W) 773 4.2 -10.2°
Drops below altitude 10° 16:15:28 10° 195° (SSW) 1,720 5.9 -10.7°
Sets 16:17:40 0° 188° (S) 2,600 6.7 -11.0°
